Time,TemperatureF,DewpointF,PressureIn,WindDirection,WindDirectionDegrees,WindSpeedMPH,WindSpeedGustMPH,Humidity,HourlyPrecipIn,Conditions,Clouds,dailyrainin,SoftwareType,DateUTC
2013-03-03 00:04:00,26.1,23.0,29.95,North,354,3.0,11.0,87,0.00,,,0.00,weatherlink.com 1.10,2013-03-03 05:04:00,
2013-03-03 00:19:00,26.1,23.0,29.95,NW,316,3.0,8.0,87,0.00,,,0.00,weatherlink.com 1.10,2013-03-03 05:19:00,
2013-03-03 00:34:00,26.1,23.0,29.95,North,5,1.0,8.0,86,0.00,,,0.00,weatherlink.com 1.10,2013-03-03 05:34:00,
2013-03-03 00:49:00,26.1,23.0,29.95,NW,304,4.0,8.0,86,0.00,,,0.00,weatherlink.com 1.10,2013-03-03 05:49:00,
2013-03-03 01:05:00,26.1,23.0,29.95,NW,304,3.0,6.0,86,0.00,,,0.00,weatherlink.com 1.10,2013-03-03 06:05:00,
2013-03-03 01:20:00,26.1,23.0,29.95,North,357,4.0,9.0,86,0.00,,,0.00,weatherlink.com 1.10,2013-03-03 06:20:00,
2013-03-03 01:35:00,26.0,22.0,29.95,NW,307,1.0,8.0,86,0.00,,,0.00,weatherlink.com 1.10,2013-03-03 06:35:00,
2013-03-03 01:50:00,26.1,23.0,29.95,NW,313,4.0,7.0,86,0.00,,,0.00,weatherlink.com 1.10,2013-03-03 06:50:00,
2013-03-03 02:05:00,25.9,22.0,29.95,NNW,336,0.0,9.0,85,0.00,,,0.00,weatherlink.com 1.10,2013-03-03 07:05:00,
2013-03-03 02:20:00,25.9,22.0,29.95,WNW,282,1.0,8.0,85,0.00,,,0.00,weatherlink.com 1.10,2013-03-03 07:20:00,
2013-03-03 02:35:00,25.8,22.0,29.95,NW,307,3.0,9.0,86,0.00,,,0.00,weatherlink.com 1.10,2013-03-03 07:35:00,
2013-03-03 02:50:00,25.6,22.0,29.94,WNW,302,0.0,6.0,86,0.00,,,0.00,weatherlink.com 1.10,2013-03-03 07:50:00,
2013-03-03 03:05:00,25.5,22.0,29.94,West,262,1.0,9.0,87,0.00,,,0.00,weatherlink.com 1.10,2013-03-03 08:05:00,
2013-03-03 03:20:00,25.3,23.0,29.94,NNW,342,1.0,4.0,89,0.00,,,0.00,weatherlink.com 1.10,2013-03-03 08:20:00,
2013-03-03 03:35:00,25.1,23.0,29.94,NNW,340,1.0,5.0,90,0.00,,,0.00,weatherlink.com 1.10,2013-03-03 08:35:00,
2013-03-03 03:50:00,25.2,23.0,29.94,West,263,3.0,5.0,91,0.00,,,0.00,weatherlink.com 1.10,2013-03-03 08:50:00,
2013-03-03 04:05:00,25.2,23.0,29.94,NNW,347,1.0,6.0,91,0.00,,,0.00,weatherlink.com 1.10,2013-03-03 09:05:00,
2013-03-03 04:20:00,25.3,23.0,29.94,West,264,5.0,11.0,89,0.00,,,0.00,weatherlink.com 1.10,2013-03-03 09:20:00,
2013-03-03 04:35:00,25.1,22.0,29.95,NNW,328,2.0,11.0,87,0.00,,,0.00,weatherlink.com 1.10,2013-03-03 09:35:00,
2013-03-03 04:50:00,24.8,21.0,29.95,WNW,297,2.0,11.0,85,0.00,,,0.00,weatherlink.com 1.10,2013-03-03 09:50:00,
2013-03-03 05:05:00,24.4,21.0,29.95,WNW,301,2.0,10.0,87,0.00,,,0.00,weatherlink.com 1.10,2013-03-03 10:05:00,
2013-03-03 05:20:00,24.2,22.0,29.96,North,353,4.0,8.0,89,0.00,,,0.00,weatherlink.com 1.10,2013-03-03 10:20:00,
2013-03-03 05:35:00,24.2,21.0,29.96,WNW,282,4.0,7.0,87,0.00,,,0.00,weatherlink.com 1.10,2013-03-03 10:35:00,
2013-03-03 05:50:00,24.2,20.0,29.96,WNW,301,4.0,9.0,84,0.00,,,0.00,weatherlink.com 1.10,2013-03-03 10:50:00,
2013-03-03 06:05:00,24.2,20.0,29.96,SSW,211,2.0,8.0,84,0.00,,,0.00,weatherlink.com 1.10,2013-03-03 11:05:00,
2013-03-03 06:20:00,24.1,20.0,29.96,WNW,284,3.0,7.0,84,0.00,,,0.00,weatherlink.com 1.10,2013-03-03 11:20:00,
2013-03-03 06:35:00,23.9,20.0,29.96,WNW,295,1.0,6.0,83,0.00,,,0.00,weatherlink.com 1.10,2013-03-03 11:35:00,
2013-03-03 06:50:00,23.9,20.0,29.97,West,274,5.0,8.0,84,0.00,,,0.00,weatherlink.com 1.10,2013-03-03 11:50:00,
2013-03-03 07:05:00,23.9,19.0,29.97,WSW,242,1.0,10.0,81,0.00,,,0.00,weatherlink.com 1.10,2013-03-03 12:05:00,
2013-03-03 07:20:00,24.0,19.0,29.97,SW,233,3.0,7.0,81,0.00,,,0.00,weatherlink.com 1.10,2013-03-03 12:20:00,
2013-03-03 07:35:00,24.1,19.0,29.98,WNW,290,5.0,8.0,81,0.00,,,0.00,weatherlink.com 1.10,2013-03-03 12:35:00,
2013-03-03 07:50:00,24.3,19.0,29.98,WSW,249,2.0,8.0,79,0.00,,,0.00,weatherlink.com 1.10,2013-03-03 12:50:00,
2013-03-03 08:05:00,24.5,18.0,29.98,West,260,2.0,9.0,76,0.00,,,0.00,weatherlink.com 1.10,2013-03-03 13:05:00,
2013-03-03 08:20:00,24.5,18.0,29.98,NW,311,4.0,9.0,75,0.00,,,0.00,weatherlink.com 1.10,2013-03-03 13:20:00,
2013-03-03 08:35:00,24.8,18.0,29.98,WNW,293,0.0,7.0,76,0.00,,,0.00,weatherlink.com 1.10,2013-03-03 13:35:00,
2013-03-03 08:50:00,25.1,19.0,29.98,West,261,5.0,7.0,76,0.00,,,0.00,weatherlink.com 1.10,2013-03-03 13:50:00,
2013-03-03 09:05:00,25.2,19.0,29.97,WSW,252,3.0,8.0,76,0.00,,,0.00,weatherlink.com 1.10,2013-03-03 14:05:00,
2013-03-03 09:20:00,25.5,18.0,29.98,NNW,346,3.0,6.0,74,0.00,,,0.00,weatherlink.com 1.10,2013-03-03 14:20:00,
2013-03-03 09:35:00,25.5,18.0,29.98,WSW,243,3.0,7.0,73,0.00,,,0.00,weatherlink.com 1.10,2013-03-03 14:35:00,
2013-03-03 09:50:00,25.1,18.0,29.98,West,262,2.0,12.0,73,0.00,,,0.00,weatherlink.com 1.10,2013-03-03 14:50:00,
2013-03-03 10:05:00,25.2,18.0,29.98,NW,318,5.0,8.0,74,0.00,,,0.00,weatherlink.com 1.10,2013-03-03 15:05:00,
2013-03-03 10:20:00,25.3,18.0,29.98,NW,316,5.0,9.0,75,0.00,,,0.00,weatherlink.com 1.10,2013-03-03 15:20:00,
2013-03-03 10:35:00,25.6,20.0,29.98,NNE,27,1.0,5.0,80,0.00,,,0.00,weatherlink.com 1.10,2013-03-03 15:35:00,
2013-03-03 10:50:00,25.6,20.0,29.98,NW,304,2.0,11.0,78,0.00,,,0.00,weatherlink.com 1.10,2013-03-03 15:50:00,
2013-03-03 11:05:00,26.2,20.0,29.98,NW,309,4.0,7.0,78,0.00,,,0.00,weatherlink.com 1.10,2013-03-03 16:05:00,
2013-03-03 11:20:00,26.7,20.0,29.98,West,263,4.0,6.0,76,0.00,,,0.00,weatherlink.com 1.10,2013-03-03 16:20:00,
2013-03-03 11:36:00,27.1,20.0,29.98,WSW,252,3.0,7.0,73,0.00,,,0.00,weatherlink.com 1.10,2013-03-03 16:36:00,
2013-03-03 11:51:00,27.1,19.0,29.97,NNW,348,4.0,8.0,71,0.00,,,0.00,weatherlink.com 1.10,2013-03-03 16:51:00,
2013-03-03 12:06:00,27.7,20.0,29.97,WSW,248,1.0,5.0,72,0.00,,,0.00,weatherlink.com 1.10,2013-03-03 17:06:00,
2013-03-03 12:21:00,27.4,20.0,29.96,WSW,245,0.0,6.0,73,0.00,,,0.00,weatherlink.com 1.10,2013-03-03 17:21:00,
2013-03-03 12:36:00,27.8,20.0,29.96,WSW,245,0.0,9.0,72,0.00,,,0.00,weatherlink.com 1.10,2013-03-03 17:36:00,
2013-03-03 12:51:00,27.6,20.0,29.96,West,273,3.0,6.0,74,0.00,,,0.00,weatherlink.com 1.10,2013-03-03 17:51:00,
2013-03-03 13:06:00,27.2,20.0,29.96,NE,40,1.0,8.0,74,0.00,,,0.00,weatherlink.com 1.10,2013-03-03 18:06:00,
2013-03-03 13:21:00,27.4,19.0,29.95,WSW,255,2.0,11.0,72,0.00,,,0.00,weatherlink.com 1.10,2013-03-03 18:21:00,
2013-03-03 13:36:00,27.8,19.0,29.94,WNW,303,7.0,9.0,70,0.00,,,0.00,weatherlink.com 1.10,2013-03-03 18:36:00,
2013-03-03 13:51:00,26.9,19.0,29.95,WNW,297,1.0,11.0,72,0.00,,,0.00,weatherlink.com 1.10,2013-03-03 18:51:00,
2013-03-03 14:06:00,27.3,20.0,29.95,West,267,4.0,7.0,74,0.00,,,0.00,weatherlink.com 1.10,2013-03-03 19:06:00,
2013-03-03 14:21:00,27.1,20.0,29.95,SW,214,1.0,7.0,75,0.00,,,0.00,weatherlink.com 1.10,2013-03-03 19:21:00,
2013-03-03 14:36:00,26.8,20.0,29.95,NNW,335,6.0,8.0,76,0.00,,,0.00,weatherlink.com 1.10,2013-03-03 19:36:00,
2013-03-03 14:51:00,26.7,19.0,29.95,West,271,3.0,9.0,74,0.00,,,0.00,weatherlink.com 1.10,2013-03-03 19:51:00,
2013-03-03 15:06:00,26.8,20.0,29.95,NW,319,1.0,8.0,74,0.00,,,0.00,weatherlink.com 1.10,2013-03-03 20:06:00,
2013-03-03 15:21:00,27.1,20.0,29.95,NNE,12,2.0,5.0,76,0.00,,,0.00,weatherlink.com 1.10,2013-03-03 20:21:00,
2013-03-03 15:36:00,27.5,20.0,29.95,WNW,283,2.0,7.0,72,0.00,,,0.00,weatherlink.com 1.10,2013-03-03 20:36:00,
2013-03-03 15:51:00,27.5,19.0,29.95,WSW,237,2.0,7.0,70,0.00,,,0.00,weatherlink.com 1.10,2013-03-03 20:51:00,
2013-03-03 16:06:00,27.1,19.0,29.95,NW,319,1.0,10.0,72,0.00,,,0.00,weatherlink.com 1.10,2013-03-03 21:06:00,
2013-03-03 16:21:00,27.3,20.0,29.96,WSW,243,4.0,7.0,73,0.00,,,0.00,weatherlink.com 1.10,2013-03-03 21:21:00,
2013-03-03 16:36:00,27.0,19.0,29.96,WSW,243,6.0,8.0,72,0.00,,,0.00,weatherlink.com 1.10,2013-03-03 21:36:00,
2013-03-03 16:51:00,27.0,19.0,29.96,West,268,3.0,6.0,73,0.00,,,0.00,weatherlink.com 1.10,2013-03-03 21:51:00,
2013-03-03 17:06:00,26.9,19.0,29.96,SSW,204,4.0,6.0,73,0.00,,,0.00,weatherlink.com 1.10,2013-03-03 22:06:00,
2013-03-03 17:21:00,26.9,20.0,29.97,SW,222,3.0,7.0,75,0.00,,,0.00,weatherlink.com 1.10,2013-03-03 22:21:00,
2013-03-03 17:36:00,26.5,20.0,29.97,WNW,290,2.0,7.0,76,0.00,,,0.00,weatherlink.com 1.10,2013-03-03 22:36:00,
2013-03-03 17:51:00,26.2,20.0,29.98,West,276,3.0,7.0,77,0.00,,,0.00,weatherlink.com 1.10,2013-03-03 22:51:00,
2013-03-03 18:06:00,26.0,20.0,29.98,WSW,251,0.0,5.0,79,0.00,,,0.00,weatherlink.com 1.10,2013-03-03 23:06:00,
2013-03-03 18:21:00,25.9,21.0,29.98,NW,310,2.0,8.0,80,0.00,,,0.00,weatherlink.com 1.10,2013-03-03 23:21:00,
2013-03-03 18:36:00,25.6,21.0,29.99,NW,319,2.0,5.0,83,0.00,,,0.00,weatherlink.com 1.10,2013-03-03 23:36:00,
2013-03-03 18:51:00,25.5,22.0,29.99,WSW,238,2.0,5.0,85,0.00,,,0.00,weatherlink.com 1.10,2013-03-03 23:51:00,
2013-03-03 19:06:00,25.4,22.0,30.00,NW,319,3.0,13.0,86,0.00,,,0.00,weatherlink.com 1.10,2013-03-04 00:06:00,
2013-03-03 19:21:00,25.0,22.0,30.00,NW,319,3.0,7.0,87,0.00,,,0.00,weatherlink.com 1.10,2013-03-04 00:21:00,
2013-03-03 19:36:00,25.1,21.0,30.01,West,260,2.0,9.0,85,0.00,,,0.00,weatherlink.com 1.10,2013-03-04 00:36:00,
2013-03-03 19:51:00,25.0,21.0,30.01,WNW,297,1.0,6.0,86,0.00,,,0.00,weatherlink.com 1.10,2013-03-04 00:51:00,
2013-03-03 20:06:00,25.0,21.0,30.01,West,278,2.0,7.0,85,0.00,,,0.00,weatherlink.com 1.10,2013-03-04 01:06:00,
2013-03-03 20:21:00,24.9,21.0,30.02,SW,214,1.0,8.0,84,0.00,,,0.00,weatherlink.com 1.10,2013-03-04 01:21:00,
2013-03-03 20:36:00,24.9,20.0,30.02,NW,311,4.0,9.0,83,0.00,,,0.00,weatherlink.com 1.10,2013-03-04 01:36:00,
2013-03-03 20:51:00,24.6,21.0,30.02,SSW,211,4.0,7.0,86,0.00,,,0.00,weatherlink.com 1.10,2013-03-04 01:51:00,
2013-03-03 21:06:00,24.3,20.0,30.02,WNW,297,1.0,8.0,85,0.00,,,0.00,weatherlink.com 1.10,2013-03-04 02:06:00,
2013-03-03 21:21:00,24.3,20.0,30.02,West,270,1.0,6.0,85,0.00,,,0.00,weatherlink.com 1.10,2013-03-04 02:21:00,
2013-03-03 21:36:00,24.2,21.0,30.03,WNW,287,1.0,8.0,86,0.00,,,0.00,weatherlink.com 1.10,2013-03-04 02:36:00,
2013-03-03 21:51:00,24.1,20.0,30.03,WSW,249,0.0,4.0,85,0.00,,,0.00,weatherlink.com 1.10,2013-03-04 02:51:00,
2013-03-03 22:07:00,24.1,20.0,30.03,WSW,248,1.0,6.0,83,0.00,,,0.00,weatherlink.com 1.10,2013-03-04 03:07:00,
2013-03-03 22:21:00,24.1,19.0,30.03,WNW,302,4.0,8.0,82,0.00,,,0.00,weatherlink.com 1.10,2013-03-04 03:21:00,
2013-03-03 22:36:00,24.1,20.0,30.03,West,281,1.0,5.0,83,0.00,,,0.00,weatherlink.com 1.10,2013-03-04 03:36:00,
2013-03-03 22:51:00,24.0,19.0,30.03,West,263,0.0,6.0,82,0.00,,,0.00,weatherlink.com 1.10,2013-03-04 03:51:00,
2013-03-03 23:06:00,23.7,20.0,30.03,West,278,4.0,7.0,85,0.00,,,0.00,weatherlink.com 1.10,2013-03-04 04:06:00,
2013-03-03 23:21:00,23.3,20.0,30.03,NW,316,0.0,5.0,87,0.00,,,0.00,weatherlink.com 1.10,2013-03-04 04:21:00,
2013-03-03 23:36:00,22.9,20.0,30.03,North,349,4.0,9.0,87,0.00,,,0.00,weatherlink.com 1.10,2013-03-04 04:36:00,
2013-03-03 23:51:00,22.7,19.0,30.03,NW,316,3.0,8.0,87,0.00,,,0.00,weatherlink.com 1.10,2013-03-04 04:51:00,